This is the latest recevied weather packets stored in our database for station/object KE8WMS. If no packets are shown the sender has not sent any weather packets the latest 10 day(s).
| Time | Temp. | Humidity | Pressure | Rain* | Wind** | Luminosity | Snow |
|---|---|---|---|---|---|---|---|
| 1787577711 | 16.11° C | 84% | 1011.1 hPa | 0 mm | - | 129 W/m² | - |
| 1787577407 | 16.11° C | 84% | 1011.4 hPa | 0 mm | - | 85 W/m² | - |
| 1787577103 | 16.11° C | 84% | 1011 hPa | 0 mm | - | 99 W/m² | - |
| 1787576799 | 15.56° C | 84% | 1011.2 hPa | 0 mm | - | 111 W/m² | - |
| 1787576494 | 15.56° C | 85% | 1011.4 hPa | 0 mm | - | 84 W/m² | - |
| 1787576190 | 15.56° C | 85% | 1011.3 hPa | 0 mm | - | 93 W/m² | - |
| 1787575885 | 15.56° C | 86% | 1011.3 hPa | 0 mm | - | 92 W/m² | - |
| 1787575581 | 15° C | 86% | 1011.2 hPa | 0 mm | - | 112 W/m² | - |
| 1787575275 | 15° C | 87% | 1011.4 hPa | 0 mm | - | 86 W/m² | - |
| 1787574970 | 15° C | 87% | 1011.3 hPa | 0 mm | - | 46 W/m² | - |
| 1787574666 | 15° C | 87% | 1011.1 hPa | 0 mm | - | 35 W/m² | - |
| 1787574361 | 15° C | 88% | 1011.2 hPa | 0 mm | - | 36 W/m² | - |
| 1787574059 | 15° C | 87% | 1011.3 hPa | 0 mm | - | 46 W/m² | - |
| 1787573756 | 15.56° C | 87% | 1011 hPa | 0 mm | - | 36 W/m² | - |
| 1787573455 | 15° C | 87% | 1011.1 hPa | 0 mm | - | 54 W/m² | - |
| 1787573151 | 15° C | 87% | 1011.1 hPa | 0 mm | - | 54 W/m² | - |
| 1787572847 | 15° C | 88% | 1011.2 hPa | 0 mm | - | 47 W/m² | - |
| 1787572543 | 15° C | 88% | 1011 hPa | 0 mm | - | 43 W/m² | - |
| 1787572242 | 15° C | 88% | 1011 hPa | 0 mm | - | 39 W/m² | - |
| 1787571938 | 14.44° C | 89% | 1010.9 hPa | 0 mm | - | 36 W/m² | - |
| 1787571637 | 14.44° C | 90% | 1011 hPa | 0 mm | - | 35 W/m² | - |
| 1787571336 | 14.44° C | 90% | 1010.6 hPa | 0 mm | - | 30 W/m² | - |
| 1787571032 | 14.44° C | 90% | 1010.9 hPa | 0 mm | - | 22 W/m² | - |
| 1787570727 | 14.44° C | 89% | 1010.5 hPa | 0 mm | - | 18 W/m² | - |
| 1787570423 | 14.44° C | 89% | 1010.7 hPa | 0 mm | - | 16 W/m² | - |
* Rain latest hour (hover to see other rain measurements)
** Current wind speed in m/s (hover to see current wind gust speed)